User: anonymous   Login
Location: Mentone
(34.5413°N, 85.5351°W)
Time: 07:51:33
(UTC-05:00)
Language:

Uosat F - Orbit

View from above orbital plane
View from above orbital plane
View from above satellite
View from above satellite

Ground track
Ground track

The orbit data is extracted from the following two-line orbital elements,

1 21575U 91050B   15185.51614977  .00000076  00000-0  38488-4 0  9993
2 21575 098.7398 174.0264 0006137 263.7607 208.5500 14.40644444258525
Epoch (UTC): 04 July 2015 12:23:15
Eccentricity: 0.0006137
inclination: 98.7398°
perigee height: 752 km
apogee height: 761 km
right ascension of ascending node: 174.0264°
argument of perigee: 263.7607°
revolutions per day: 14.40644444
mean anomaly at epoch: 208.5500°
orbit number at epoch: 25852

The dashed part of the orbit path shows where the satellite is in the earth's shadow,  

DLR